GW3497 Weather Reports


time (UTC)temp
C
wind
direction
speed
KPH
gust
KPH
rain 1hr
cm
rain 24hr
cm
rain mn
cm
humidity
%
barometer
mb
20260505070127 10 0.0 0.0 0.00 0.00 0.00 92 1013.4
20260505065630 10 0.0 0.0 0.00 0.00 0.00 92 1013.4
20260505065127 10 0.0 0.0 0.00 0.00 0.00 92 1013.4
20260505064629 10 0.0 0.0 0.00 0.00 0.00 92 1013.4
20260505064128 10 0.0 0.0 0.00 0.00 0.00 92 1013.5
20260505063629 10 0.0 0.0 0.00 0.00 0.00 92 1013.4
20260505063126 10 0.0 0.0 0.00 0.00 0.00 92 1013.4
20260505062626 10 0.0 0.0 0.00 0.00 0.00 92 1013.5
20260505062127 10 0.0 0.0 0.00 0.00 0.00 92 1013.5
20260505061626 9 0.0 0.0 0.00 0.00 0.00 91 1013.6
20260505061124 9 0.0 0.0 0.00 0.00 0.00 91 1013.5
20260505060623 9 0.0 0.0 0.00 0.00 0.00 91 1013.6
20260505060125 9 0.0 0.0 0.00 0.00 0.00 91 1013.6
20260505055623 9 0.0 0.0 0.00 0.00 0.00 91 1013.5
20260505055123 9 0.0 0.0 0.00 0.00 0.00 91 1013.6
20260505054624 9 0.0 0.0 0.00 0.00 0.00 91 1013.6
20260505054413 9 0.0 0.0 0.00 0.00 0.00 91 1013.7
20260505053622 9 0.0 0.0 0.00 0.00 0.00 91 1013.6
20260505053122 9 0.0 0.0 0.00 0.00 0.00 91 1013.6
20260505052624 9 0.0 0.0 0.00 0.00 0.00 91 1013.7
20260505052123 9 0.0 0.0 0.00 0.00 0.00 91 1013.7
20260505051627 9 0.0 0.0 0.00 0.00 0.00 91 1013.7
20260505051408 9 0.0 0.0 0.00 0.00 0.00 91 1013.7
20260505050909 9 0.0 0.0 0.00 0.00 0.00 91 1013.6
20260505050121 9 0.0 0.0 0.00 0.00 0.00 91 1013.6
20260505041617 9 0.0 0.0 0.00 0.00 0.00 91 1013.7
20260505041118 9 0.0 0.0 0.00 0.00 0.00 91 1013.6
20260505040618 9 0.0 0.0 0.00 0.00 0.00 90 1013.7
20260505040117 9 49 0.0 0.0 0.00 0.00 0.00 90 1013.7
20260505035617 8 49 0.0 0.0 0.00 0.00 0.00 90 1013.8
20260505035116 8 49 0.0 0.0 0.00 0.00 0.00 90 1013.6
20260505034913 8 49 0.0 0.0 0.00 0.00 0.00 90 1013.6
20260505034118 8 49 0.0 0.0 0.00 0.00 0.00 90 1013.6
20260505033616 8 49 0.0 0.0 0.00 0.00 0.00 90 1013.6
20260505033118 8 49 0.0 0.0 0.00 0.00 0.00 89 1013.6
20260505032616 8 49 0.0 0.0 0.00 0.00 0.00 89 1013.7
20260505032116 8 49 0.0 0.0 0.00 0.00 0.00 89 1013.8
20260505031615 8 49 0.0 0.0 0.00 0.00 0.00 89 1013.8
20260505031116 8 49 0.0 0.0 0.00 0.00 0.00 89 1013.8
20260505030614 9 49 0.0 0.0 0.00 0.00 0.00 89 1013.9
20260505030115 9 49 0.0 0.0 0.00 0.00 0.00 89 1013.8
20260505025613 9 49 0.0 0.0 0.00 0.00 0.00 89 1013.8
20260505025115 9 49 0.0 0.0 0.00 0.00 0.00 89 1013.7
20260505024614 9 49 0.0 3.2 0.00 0.00 0.00 89 1013.8
20260505024115 9 49 0.0 4.8 0.00 0.00 0.00 89 1013.7
20260505023614 9 49 0.0 4.8 0.00 0.00 0.00 89 1013.7
20260505023116 9 49 1.6 3.2 0.00 0.00 0.00 89 1013.6
20260505022614 9 49 0.0 3.2 0.00 0.00 0.00 89 1013.7
20260505022114 9 49 0.0 0.0 0.00 0.00 0.00 89 1013.7
20260505021614 9 51 0.0 0.0 0.00 0.00 0.00 89 1013.7
20260505021113 10 51 0.0 0.0 0.00 0.00 0.00 89 1013.8
20260505020614 10 54 0.0 0.0 0.00 0.00 0.00 89 1013.9
20260505020116 10 54 0.0 0.0 0.00 0.00 0.00 89 1014.0
20260505015754 10 54 0.0 0.0 0.00 0.00 0.00 89 1014.0
20260505015527 10 54 0.0 0.0 0.00 0.00 0.00 89 1014.1
20260505014112 10 54 0.0 0.0 0.00 0.00 0.00 89 1014.2
20260505013611 10 54 0.0 1.6 0.00 0.00 0.00 89 1014.2
20260505013112 10 54 0.0 1.6 0.00 0.00 0.00 89 1014.1
20260505012613 10 54 0.0 0.0 0.00 0.00 0.00 89 1014.2
20260505012114 10 54 0.0 1.6 0.00 0.00 0.00 89 1014.2
20260505011612 10 54 0.0 3.2 0.00 0.00 0.00 89 1014.2
20260505011241 10 54 0.0 3.2 0.00 0.00 0.00 89 1014.1
20260505011217 10 54 0.0 3.2 0.00 0.00 0.00 89 1014.1
20260505010111 10 54 0.0 1.6 0.00 0.00 0.00 89 1014.2
20260505005904 10 54 0.0 3.2 0.00 0.00 0.00 89 1014.2
20260505005109 10 54 0.0 3.2 0.00 0.00 0.00 89 1014.3
20260505004903 10 47 0.0 3.2 0.00 0.00 0.00 88 1014.3
20260505004108 10 10 0.0 4.8 0.00 0.00 0.00 88 1014.3
20260505003858 10 38 0.0 6.4 0.00 0.00 0.00 88 1014.4
20260505003110 10 62 1.6 6.4 0.00 0.00 0.00 88 1014.3
20260505002608 10 25 0.0 3.2 0.00 0.00 0.00 89 1014.5
20260505002108 10 25 0.0 4.8 0.00 0.00 0.00 89 1014.6
20260505001830 10 42 1.6 4.8 0.00 0.00 0.00 89 1014.6
20260505001109 10 44 0.0 3.2 0.00 0.03 0.00 89 1014.6
20260505000607 10 44 0.0 4.8 0.00 0.03 0.00 89 1014.8
20260505000107 10 44 1.6 4.8 0.00 0.05 0.00 88 1015.0
20260504235609 10 35 0.0 4.8 0.00 0.10 0.00 88 1014.9
20260504235108 10 35 0.0 4.8 0.00 0.20 0.00 88 1014.9
20260504234609 10 38 0.0 6.4 0.00 0.23 0.00 88 1014.9
20260504234409 10 32 3.2 6.4 0.00 0.28 0.00 88 1015.0
20260504233607 10 62 4.8 6.4 0.00 0.33 0.00 88 1015.0
20260504233109 11 58 1.6 4.8 0.00 0.33 0.00 88 1015.0
20260504232907 11 59 0.0 6.4 0.00 0.33 0.00 88 1015.0
20260504232108 11 58 1.6 6.4 0.00 0.33 0.00 88 1014.8
20260504231607 11 59 0.0 4.8 0.00 0.33 0.00 88 1014.8
20260504231118 11 59 3.2 4.8 0.00 0.33 0.00 88 1014.8
20260504230608 11 71 1.6 3.2 0.00 0.38 0.00 88 1014.8
20260504230404 11 71 0.0 3.2 0.00 0.38 0.00 88 1014.9
20260504225903 11 71 0.0 4.8 0.00 0.41 0.38 88 1014.9
20260504225106 11 71 1.6 6.4 0.00 0.41 0.38 88 1014.9
20260504224607 11 71 3.2 6.4 0.00 0.43 0.38 88 1014.9
20260504224104 11 68 3.2 8.0 0.00 0.46 0.38 88 1014.9
20260504223604 11 52 4.8 8.0 0.00 0.51 0.38 88 1015.0
20260504223103 11 52 3.2 9.7 0.00 0.64 0.38 88 1015.0
20260504222605 11 54 4.8 9.7 0.00 0.91 0.38 88 1015.2
20260504222106 11 48 3.2 8.0 0.00 1.02 0.38 88 1015.1
20260504221604 11 61 1.6 6.4 0.00 1.02 0.38 88 1015.1
20260504221105 11 59 1.6 6.4 0.00 1.02 0.38 87 1015.2
20260504220858 11 62 3.2 9.7 0.00 1.02 0.38 87 1015.2
20260504220108 11 52 3.2 9.7 0.00 1.02 0.38 87 1015.2
20260504215603 11 44 3.2 8.0 0.00 1.02 0.38 87 1015.2
20260504215104 11 30 1.6 8.0 0.00 1.02 0.38 87 1015.3
20260504214602 11 23 1.6 8.0 0.00 1.02 0.38 87 1015.2
20260504214105 11 54 1.6 8.0 0.00 1.02 0.38 87 1015.2
20260504213603 11 52 1.6 8.0 0.00 1.02 0.38 87 1015.1
20260504213105 11 4 3.2 8.0 0.00 1.02 0.38 87 1015.2
20260504212855 11 65 1.6 8.0 0.00 1.02 0.38 87 1015.3
20260504212101 11 48 3.2 6.4 0.00 1.02 0.38 87 1015.1
20260504211854 11 345 3.2 6.4 0.00 1.02 0.38 87 1015.3
20260504211055 11 78 1.6 6.4 0.00 1.02 0.38 87 1015.2
20260504210557 11 54 3.2 6.4 0.00 1.02 0.38 86 1015.2
20260504205551 11 51 3.2 9.7 0.00 1.02 0.38 86 1015.3
20260504205051 11 61 3.2 8.0 0.00 1.02 0.38 86 1015.4
20260504204548 11 51 1.6 9.7 0.00 1.02 0.38 86 1015.4
20260504204048 11 48 3.2 11.3 0.00 1.02 0.38 86 1015.4
20260504203547 11 35 1.6 11.3 0.00 1.02 0.38 86 1015.4
20260504203050 12 49 3.2 11.3 0.00 1.02 0.38 86 1015.3
20260504202546 12 20 3.2 8.0 0.00 1.02 0.38 86 1015.3
20260504202046 12 59 4.8 8.0 0.00 1.02 0.38 86 1015.3
20260504201545 12 34 1.6 9.7 0.00 1.02 0.38 86 1015.3
20260504201044 12 28 3.2 9.7 0.00 1.02 0.38 86 1015.3
20260504200544 12 54 4.8 9.7 0.00 1.02 0.38 86 1015.2
20260504200104 12 72 4.8 11.3 0.00 1.02 0.38 86 1015.2
20260504195545 12 27 6.4 11.3 0.00 1.02 0.38 86 1015.1
20260504195045 12 47 3.2 6.4 0.00 1.02 0.38 86 1015.1
20260504194550 12 68 3.2 6.4 0.00 1.02 0.38 86 1015.1
20260504194043 12 63 1.6 4.8 0.00 1.02 0.38 85 1014.9
20260504193542 12 39 0.0 6.4 0.00 1.02 0.38 85 1015.0
20260504193049 12 27 3.2 6.4 0.00 1.02 0.38 85 1014.8
20260504192531 12 38 1.6 8.0 0.00 1.02 0.38 85 1014.8
20260504192046 12 49 1.6 8.0 0.00 1.02 0.38 85 1014.8
20260504191532 12 25 0.0 4.8 0.00 1.02 0.38 85 1014.8
20260504191047 13 52 1.6 6.4 0.00 1.02 0.38 85 1014.8
20260504190528 13 54 1.6 6.4 0.00 1.02 0.38 84 1014.8
20260504185527 13 56 3.2 11.3 0.00 1.02 0.38 84 1014.6
20260504185037 13 69 8.0 11.3 0.00 1.02 0.38 84 1014.6
20260504184526 13 59 6.4 11.3 0.00 1.02 0.38 84 1014.6
20260504184037 13 51 6.4 11.3 0.00 1.02 0.38 84 1014.6
20260504183525 13 82 3.2 8.0 0.00 1.02 0.38 84 1014.4
20260504183354 13 66 3.2 6.4 0.00 1.02 0.38 84 1014.3
20260504182807 13 52 4.8 6.4 0.00 1.02 0.38 84 1014.4
20260504182035 13 38 3.2 4.8 0.00 1.02 0.38 85 1014.4
20260504181815 13 63 1.6 4.8 0.00 1.02 0.38 85 1014.3
20260504181036 13 62 3.2 6.4 0.00 1.02 0.38 84 1014.3
20260504180515 13 51 3.2 6.4 0.00 1.02 0.38 84 1014.2
20260504180052 -17 20 4.8 6.4 0.00 1.02 0.38 1014.2
20260504175515 -17 28 3.2 4.8 0.00 1.02 0.38 1014.2
20260504175034 -17 83 1.6 1.6 0.00 1.02 0.38 1014.2
20260504174522 -17 78 8.0 8.0 0.00 1.02 0.38 1014.1
20260504174037 -17 78 8.0 8.0 0.00 1.02 0.38 1014.2
20260504173515 13 61 6.4 6.4 0.00 1.02 0.38 83 1014.2
20260504173343 13 0.0 0.0 0.00 1.02 0.38 83 1014.0
20260504172516 13 51 14.5 14.5 0.00 1.02 0.38 83 1014.1
20260504172033 13 51 14.5 14.5 0.00 1.02 0.38 83 1014.1
20260504171527 13 16 6.4 11.3 0.00 1.02 0.38 83 1014.2
20260504171038 13 56 8.0 11.3 0.00 1.02 0.38 83 1014.1
20260504170528 13 76 11.3 11.3 0.00 1.02 0.38 83 1014.1
20260504150444 12 0.0 0.0 0.00 1.02 0.38 86 1014.9
20260504140937 13 0.0 0.0 0.00 1.02 0.38 85 1015.0
20260504140639 13 0.0 0.0 0.00 1.02 0.38 85 1015.0
20260504140604 13 0.0 0.0 0.00 1.02 0.38 85 1015.0
20260504130437 14 0.0 0.0 0.00 1.02 0.38 85 1014.8
20260504110424 12 0.0 0.0 0.00 1.02 0.38 90 1014.8
20260504100413 11 0.0 0.0 0.00 1.02 0.38 92 1014.9
20260504081645 11 0.0 0.0 0.00 1.02 0.38 93 1014.2
20260504080842 11 0.0 0.0 0.00 1.02 0.38 94 1014.1
20260504080631 10 0.0 0.0 0.00 1.02 0.38 93 1014.1